Regional Weather Roundup
Issued by NWS

Home | Current Version | Previous Version | Text Only | Print | Product List | Glossary Off
Versions: 1 2 3 4 5 6 7 8 9 10 11 12 13 14 15 16 17 18 19 20 21 22 23 24 25 26 27 28 29 30 31 32 33 34 35 36 37 38 39 40 41 42 43 44 45 46 47 48 49 50

904
ASUS45 KBOU 290607
RWRCO

WEATHER ROUNDUP FOR COLORADO
NATIONAL WEATHER SERVICE DENVER/BOULDER CO
1200 AM MDT FRI JUL 29 2016

NOTE: "FAIR" INDICATES FEW OR NO CLOUDS BELOW 12000 FEET WITH NO
SIGNIFICANT WEATHER AND/OR OBSTRUCTIONS TO VISIBILITY.

COZ001>005-013-030-031-290700-
...NORTHWEST COLORADO...

CITY           SKY/WX    TMP DP  RH WIND       PRES   REMARKS
CRAIG          FAIR      61  37  41 CALM      30.17S
HAYDEN         FAIR      64  34  32 E3        30.20S
MEEKER         FAIR      61  38  42 NE5       30.21R
MOUNT WERNER   NOT AVBL
STEAMBOAT SPGS FAIR      63  39  41 E7        30.23R
WALDEN         FAIR      52  43  71 NW6       30.36S
$$

COZ006>008-011-290700-
...WEST CENTRAL VALLEYS...

CITY           SKY/WX    TMP DP  RH WIND       PRES   REMARKS
GRAND JUNCTION FAIR      79  30  16 SW3       30.02S
MONTROSE       FAIR      75  36  24 SE13      30.14S
EAGLE          FAIR      66  34  30 CALM      30.23R
RIFLE          FAIR      71  34  25 SE8       30.12R
DELTA          NOT AVBL
NUCLA          NOT AVBL
$$

COZ017>023-064>068-290700-
...SOUTHWEST COLORADO...

CITY           SKY/WX    TMP DP  RH WIND       PRES   REMARKS
DURANGO        FAIR      66  40  38 N7        30.23S
CORTEZ         FAIR      69  40  34 E6        30.15S
PAGOSA SPRINGS FAIR      65  34  31 NE5       30.34F
TELLURIDE      FAIR      61  32  33 SE6       30.47F
WOLF CREEK PAS FAIR      54  36  50 SW18      30.71S
$$

COZ009-010-012-014-032>034-037-058>063-290700-
...CENTRAL COLORADO...

CITY           SKY/WX    TMP DP  RH WIND       PRES   REMARKS
ASPEN          FAIR      60  33  36 SW8       30.32S
BUENA VISTA    FAIR      63  43  47 SW3       30.38R
COPPER MTN     FAIR      59  23  25 W10       30.68S
BERTHOUD PASS  FAIR      50  34  53 NW8G23    30.71R
COTTONWOOD PAS FAIR      61  45  55 CALM      30.54R
GUNNISON       FAIR      61  36  39 NE3       30.35R
KREMMLING      FAIR      54  32  43 SW3       30.31R
LEADVILLE      MOCLDY    54  25  32 S6        30.50R
MONARCH PASS   FAIR      50  41  71 NE20      30.78S
SALIDA         FAIR      70  54  55 E14G22    30.41R
SUNLIGHT       NOT AVBL
WILKERSON PASS FOG       50  48  93 NE5       30.67S VSB<1/4
$$

COZ069>075-290700-
...SAN LUIS VALLEY/SANGRE DE CRISTO MOUNTAINS...

CITY           SKY/WX    TMP DP  RH WIND       PRES   REMARKS
ALAMOSA        FAIR      65  45  48 SE13      30.30R
LA VETA PASS   FAIR      54  46  76 NE13      30.56S THUNDER
SAGUACHE       FAIR      61  30  31 CALM      30.34R
$$

COZ035-036-038>040-290700-
...NORTHERN COLORADO FRONT RANGE...

CITY           SKY/WX    TMP DP  RH WIND       PRES   REMARKS
DENVER INTL AP MOCLDY    67  58  72 E7        30.26R
DMNS CITY PARK   N/A     70  59  69 SE5       30.25S
AURORA         CLOUDY    68  60  77 E5        30.27R
FRONT RANGE AP NOT AVBL
ERIE MUNI ARPT CLOUDY    71  56  58 E8        30.24R
BOULDER MUN AP CLOUDY    68  55  64 NE3       30.24R
CENTENNIAL     CLOUDY    67  59  75 SE5       30.27S
BROOMFIELD     CLOUDY    70  59  68 E5        30.28R
LONGMONT       NOT AVBL
$$

COZ041-046-047-076>085-087-088-290700-
...PIKES PEAK/PALMER DIVIDE AND SOUTHERN FOOTHILLS...

CITY           SKY/WX    TMP DP  RH WIND       PRES   REMARKS
COLO. SPRINGS  MOCLDY    62  59  90 NW6       30.33R
A. F. ACADEMY  MOCLDY    60  56  86 SE6       30.33F
SCHRIEVER AFB  NOT AVBL
ELLICOTT       NOT AVBL
FALCON         NOT AVBL
FORT CARSON    FAIR      63  58  86 W7        30.29R
LIMON          FAIR      63  61  93 E6        30.25S
MONUMENT HILL  FAIR      59  55  88 SE9       30.37F
TRINIDAD       NOT AVBL
$$

COZ042>045-048>051-090-091-290700-
...NORTHEAST COLORADO...

CITY           SKY/WX    TMP DP  RH WIND       PRES   REMARKS
GREELEY ARPT   CLOUDY    66  59  77 E6        30.26R
AKRON          FAIR      62  58  86 SE7       30.23R
BURLINGTON     FAIR      64  58  80 E6        30.21R
WRAY           NOT AVBL
STERLING       NOT AVBL
HOLYOKE        NOT AVBL
FORT MORGAN    NOT AVBL
$$

COZ086-089-092>099-290700-
...SOUTHEAST COLORADO...

CITY           SKY/WX    TMP DP  RH WIND       PRES   REMARKS
PUEBLO         FAIR      70  62  76 NE13      30.20R
LA JUNTA       LGT RAIN  69  59  70 E13       30.21R
LAMAR          FAIR      67  59  75 NE13      30.16R
SPRINGFIELD      N/A     65  59  81 NE20G33   30.15F
$$




USA.gov is the U.S. government's official web portal to all federal, state and local government web resources and services.